Kezdőlap
METAR-TAF:

METAR-TAF

Repülőterek :

Knoxville Municipal Airport

Knoxville, Iowa, Amerikai Egyesült Államok

földrajzi szélesség: 41-18N, földrajzi hosszúság: 093-07W, magasság: 283 m

Jelenlegi meteorológiai megfigyelések

A jelentés 19 perccel ezelõtt készült, 08:35 UTC
Nyugat-délnyugati szél 14 kt széllökések: 21 kt
Hőmérséklet 29°C
Páratartalom 45%
Légköri nyomás 1007 hPa
Látótávolság: 16.1 km
Borult 15000 lábon

METAR: KOXV 180835Z AUTO 24014G21KT 10SM OVC150 29/16 A2974 RMK AO2

Idő: 03:54 (08:54 UTC)


TAF: hiányzik

Meteorológiai megfigyelések és előrejelzések több, mint 4000 repülőtéren (METAR és TAF jelentéseket).

A térképen piros és sárga pontok jelzik az elérhető meteorológiai állomásokat.

Mozgassa az egeret a pont fölött, hogy megjelenjen az állomás neve.

Azután kattintson az időjárási megfigyelések és előrejelzések megtekintéséhez.

A térkép megváltoztatása: kattintson a fekete keresztel jelölt zöld gombra ráközelítéshez, a vonallal jelölt zöld gombra távolításhoz, vagy a zöld nyilakra a szomszédos térképek eléréséhez.


METAR-TAF: